Location: *
(45.5667°S, 177.5167°W)
Time: 04:31:03
(UTC+00:00)

Cosmos 1812 - Pass Details

Date: 29 May 2022
Orbit: 512 x 513 km, 82.5° (Epoch: 24 June)

Event Time Altitude Azimuth Distance (km) Brightness Sun altitude
Rises 05:27:20 0° 185° (S) 2,673 6.2 -11.9°
Reaches altitude 10° 05:29:31 10° 181° (S) 1,777 5.2 -12.2°
Maximum altitude 05:33:21 56° 102° (ESE) 630 2.7 -12.9°
Drops below altitude 10° 05:37:08 10° 22° (NNE) 1,749 5.3 -13.5°
Sets 05:39:17 0° 17° (NNE) 2,627 6.3 -13.9°
